Regional Weather Roundup
Issued by NWS

Home | Current Version | Previous Version | Text Only | Print | Product List | Glossary Off
Versions: 1 2 3 4 5 6 7 8 9 10 11 12 13 14 15 16 17 18 19 20 21 22 23 24 25 26 27 28 29 30 31 32 33 34 35 36 37 38 39 40 41 42 43 44 45 46 47 48 49 50

000
ASUS43 KDTX 281310
RWRMI
MICHIGAN HOURLY REGIONAL WEATHER ROUNDUP
NATIONAL WEATHER SERVICE DETROIT/PONTIAC MI
900 AM EDT THU JUL 28 2016

NOTE: "FAIR" INDICATES FEW OR NO CLOUDS BELOW 12,000 FEET WITH NO
SIGNIFICANT WEATHER AND/OR OBSTRUCTION TO VISIBILITY.

MIZ047>049-052>055-059>063-066>070-074>076-081>083-281400-
SOUTHEAST LOWER MICHIGAN

CITY           SKY/WX    TMP DP  RH WIND       PRES   REMARKS
ADRIAN         CLOUDY    72  66  81 NE6       29.94F
ALMA           CLOUDY    68  68 100 NE8       29.98R FOG
ANN ARBOR      MOSUNNY   72  66  81 NE3       29.94S
BAD AXE        MOSUNNY   69  68  97 N7        29.98S
CARO           MOSUNNY   72  66  83 NE5       29.97S
DETROIT CITY   PTSUNNY   73  68  84 NE7       29.94S
DETROIT        CLOUDY    74  65  73 NE5       29.94S
FLINT          MOSUNNY   76  63  64 NE9       29.97S
GROSSE ILE     CLOUDY    74  67  79 NE6       29.93S
HILLSDALE      CLOUDY    72  65  79 CALM      29.95F
HOWELL         MOSUNNY   70  66  88 NE5       29.96F

CITY           SKY/WX    TMP DP  RH WIND       PRES   REMARKS
JACKSON        PTSUNNY   71  67  87 E6        29.96S
LAMBERTVILLE   CLOUDY    74  69  82 CALM      29.93F
LANSING        PTSUNNY   70  65  84 NE5       29.97S
LAPEER         PTSUNNY   71  64  76 NE6       29.97F
MASON          MOSUNNY   68  64  85 NE5       29.96F
MONROE         PTSUNNY   73  70  89 N3        29.92S
MT. CLEMENS    CLOUDY    73  68  85 NE7       29.93R
PONTIAC        PTSUNNY   72  64  76 NE6       29.95S
PORT HOPE        N/A     72  64  76 VRB7      29.97R
PORT HURON     CLOUDY    72  68  88 N3        29.95F
TRI CITIES     CLOUDY    71  69  93 NE7       29.98R
MIDLAND        FAIR      68  67  98 NE6       29.98S
TROY           MOSUNNY   73  65  75 NE9       29.97S
SAGINAW HB     MOSUNNY   70  68  94 NE6       29.97S
$$
MIZ043>046-050>051-056>058-064>065-071>073-077>080-281400-
SOUTHWEST LOWER MICHIGAN

CITY           SKY/WX    TMP DP  RH WIND       PRES   REMARKS
BATTLE CREEK   MOSUNNY   69  65  86 NE7       29.96S
BENTON HARBOR  MOSUNNY   75  67  76 E5        29.93R
BIG RAPIDS     CLOUDY    67  67 100 NE5       29.98R
COLDWATER      CLOUDY    72  69  92 N5        29.95S
FREMONT        FAIR      72  71  99 E9        29.95R
HOLLAND        MOSUNNY   71  66  84 E5        29.94S
GRAND RAPIDS   PTSUNNY   71  65  81 E5        29.96S
IONIA          FAIR      69  65  89 NE5       29.96S
KALAMAZOO      MOSUNNY   72  64  76 VRB3      29.95S
LUDINGTON      CLOUDY    69  60  74 E12       29.96R
MARSHALL       MOSUNNY   70  66  86 NE5       29.95S
MOUNT PLEASANT CLOUDY    69  68  99 NE7       29.98R
MUSKEGON       CLOUDY    76  67  73 E9        29.94S
SOUTH HAVEN    PTSUNNY   70  68  92 E3        29.94S
$$
MIZ016>042-281400-
NORTHERN LOWER MICHIGAN

CITY           SKY/WX    TMP DP  RH WIND       PRES   REMARKS
ALPENA         LGT RAIN  63  60  90 CALM      30.01R
BEAVER ISLAND  CLOUDY    65  61  86 CALM      30.01F
BELLAIRE       LGT RAIN  63  55  74 CALM      30.01R
CADILLAC       LGT RAIN  63  54  73 NE6       30.00F
CHARLEVOIX     CLOUDY    64  58  82 NE3       30.03F
FRANKFORT      HVY RAIN  65  57  75 E3        30.00R
GAYLORD        LGT RAIN  62  52  69 NE5       30.01F
GRAYLING       CLOUDY    62  55  77 CALM      30.02S
HARBOR SPRINGS CLOUDY    61  59  92 N3        30.01S
HOUGHTON LAKE  CLOUDY    63  54  72 NE8       30.01S
MANISTEE       CLOUDY    68  54  60 E8        29.97R
OSCODA         CLOUDY    65  58  77 NW7       29.98S
PELLSTON       CLOUDY    61  57  87 N3        30.01S
ROGERS CITY    PTSUNNY   64  60  87 CALM      30.01S
TRAVERSE CITY  LGT RAIN  65  56  72 NE5       29.99R
$$
MIZ007>008-015-281400-
EASTERN UPPER MICHIGAN

CITY           SKY/WX    TMP DP  RH WIND       PRES   REMARKS
KINROSS        CLOUDY    65  57  75 NE8       30.01S
MACKINAC ISLAN CLOUDY    61  61 100 CALM      30.01R
NEWBERRY       SUNNY     64  59  82 N7        30.02R
S. S. MARIE    PTSUNNY   67  55  65 VRB6      30.01S
MUNISING         N/A     68  62  81 N12       30.02S
$$
MIZ004>006-011>014-085-281400-
CENTRAL UPPER MICHIGAN

CITY           SKY/WX    TMP DP  RH WIND       PRES   REMARKS
MANISTIQUE     MOSUNNY   64  61  88 N7        30.01S
ESCANABA       CLOUDY    64  61  88 N6        30.01S
MENOMINEE      RAIN     N/A N/A N/A N5        30.02S
SAWYER-GWINN   SUNNY     63  57  82 NE12G17   30.04S
$$
MIZ001>003-009>011-084-281400-
WESTERN UPPER MICHIGAN

CITY           SKY/WX    TMP DP  RH WIND       PRES   REMARKS
IRON MOUNTAIN  CLOUDY    64  56  75 N3        30.03S
HOUGHTON       SUNNY     64  53  67 E9        30.07R
COPPER HARBOR    N/A     63  55  75 VRB5      30.08R
IRONWOOD       SUNNY     63  57  82 E7        30.04S
$$

ABBREVIATIONS USED IN REMARKS
   TC - TEMPERATURE IN CELSIUS
  WCI - WIND CHILL INDEX
   HX - HEAT INDEX
  VSB - VISIBILITY





USA.gov is the U.S. government's official web portal to all federal, state and local government web resources and services.